Skip Page Navigation
NASA JPL Caltech
NASA Logo - Jet Propulsion Laboratory + View the NASA Portal
+ Center for Near-Earth Object Studies
JPL Home Earth Solar System Stars & Galaxies Technology
JPL Solar System Dynamics
BODIES ORBITS EPHEMERIDES TOOLS PHYSICAL DATA DISCOVERY FAQ SITE MAP
JPL Small-Body Database Browser
Search: [ help ]  
277105 (2005 FR14)
Classification: Main-belt Asteroid          SPK-ID: 2277105
Ephemeris | Orbit Diagram | Orbital Elements | Mission Design | Physical Parameters | Discovery Circumstances | Close-Approach Data ]

[ hide orbit diagram ]

For accurate long-term ephemerides, please instead use our Horizons system.This orbit viewer was implemented using two-body methods, and hence should not be used for determining accurate long-term trajectories (over several years or decades) or planetary encounter circumstances.


Orbital Elements at Epoch 2459000.5 (2020-May-31.0) TDB
Reference: JPL 17 (heliocentric ecliptic J2000)
 Element Value Uncertainty (1-sigma)   Units 
e .0449771541336747 5.7177e-08  
a 3.166635846664622 3.9066e-08 au
q 3.024209578103968 1.9276e-07 au
i 10.50967427446615 5.2753e-06 deg
node 122.0460995857161 3.0755e-05 deg
peri 54.70671786169685 6.7076e-05 deg
M 259.1900454920623 6.1149e-05 deg
tp 2459576.863580252416
(2021-Dec-28.36358025)
0.0003542 TDB
period 2058.238096660703
5.64
3.8088e-05
1.043e-07
d
yr
n .1749068781615043 3.2367e-09 deg/d
Q 3.309062115225277 4.0823e-08 au
  Orbit Determination Parameters
   # obs. used (total)      290  
   data-arc span      10189 days (27.90 yr)  
   first obs. used      1992-12-24  
   last obs. used      2020-11-16  
   planetary ephem.      DE431  
   SB-pert. ephem.      SB431-N16  
   condition code      0  
   norm. resid. RMS      .55756  
   source      ORB  
   producer      Otto Matic  
   solution date      2020-Dec-18 00:26:49  

Additional Information
 Earth MOID = 2.04515 au 
 Jupiter MOID = 1.7281 au 
 T_jup = 3.176 
[ show covariance matrix ]

Ephemeris | Orbit Diagram | Orbital Elements | Mission Design | Physical Parameters | Discovery Circumstances | Close-Approach Data ]

Physical Parameter Table
Parameter Symbol Value Units Sigma Reference Notes
absolute magnitude H 15.3   n/a MPO418473  

277105 (2005 FR14)          Discovered 2005-Mar-16 by CSS at Catalina
Reference: 20110517/Numbers.arcLast Updated: 2011-05-20

[ show close-approach data ]
Alternate Designations
 2005 FR14 = 2008 XN9 = 2010 AM25 
Ephemeris | Orbit Diagram | Orbital Elements | Mission Design | Physical Parameters | Discovery Circumstances | Close-Approach Data ]
ABOUT SSD CREDITS/AWARDS PRIVACY/COPYRIGHT GLOSSARY LINKS
FirstGov 2021-Jan-20 08:05 UT
(server date/time)  
NASA Home Page
Site Manager:   Ryan S. Park
Webmaster  Alan B. Chamberlin